Beach, ND

11:32 PM MDT on August 24, 2016 (GMT -0600)
Beach

Weather History for K20U - October, 2012

Change the Weather History Date:

Saturday, October 20, 2012

  Actual Average (KGDV) Record (KGDV)
Temperature  
Mean Temperature 52 °F -  
Max Temperature 66 °F 52 °F 73 °F (2014)
Min Temperature 37 °F 30 °F 28 °F (1997)
Degree Days  
Heating Degree Days 14    
Growing Degree Days 2 (Base 50)    
Moisture  
Dew Point 35 °F    
Average Humidity 56    
Maximum Humidity 93    
Minimum Humidity 32    
Precipitation  
Precipitation 0.02 in - - ()
Sea Level Pressure  
Sea Level Pressure 29.58 in    
Wind  
Wind Speed 8 mph (WSW)    
Max Wind Speed 23 mph    
Max Gust Speed 30 mph    
Visibility 10 miles    
Events Rain    
Averages and records for this station are not official NWS values.
T = Trace of Precipitation, MM = Missing Value Source: NWS Daily Summary

Daily Weather History Graph

Daily Weather History Graph

Search for Another Location

Airport or City:

Trip Planner

Search our weather history database for the weather conditions in past years. The results will help you decide how hot, cold, wet, or windy it might be!

Date:

Astronomy

Oct. 20, 2012 Rise Set
Actual Time 7:21 AM MDT 5:58 PM MDT
Civil Twilight 6:50 AM MDT 6:29 PM MDT
Nautical Twilight 6:15 AM MDT 7:04 PM MDT
Astronomical Twilight 5:40 AM MDT 7:40 PM MDT
Moon 1:10 PM MDT (10/20) 10:37 PM MDT (10/20)
Length of Visible Light 11h 38m
Length of Day
10h 36m
Waxing Crescent, 35% of the Moon is Illuminated
Oct 20
Waxing Crescent
Oct 21
First Quarter
Oct 29
Full
Nov 6
Last Quarter
Nov 13
New

Hourly Weather History & Observations

Time (MDT) Temp. Windchill Dew Point Humidity Pressure Visibility Wind Dir Wind Speed Gust Speed Precip Events Conditions
12:15 AM 48.2 °F - 32.0 °F 54% 29.59 in 10.0 mi SW 6.9 mph - N/A   Clear
12:35 AM 50.0 °F - 32.0 °F 50% 29.59 in 10.0 mi WSW 9.2 mph - N/A   Partly Cloudy
12:55 AM 48.2 °F - 32.0 °F 54% 29.59 in 10.0 mi WSW 8.1 mph - N/A   Clear
1:15 AM 50.0 °F - 32.0 °F 50% 29.59 in 10.0 mi SW 10.4 mph - N/A   Clear
1:35 AM 50.0 °F - 32.0 °F 50% 29.59 in 10.0 mi WSW 8.1 mph - N/A   Clear
1:55 AM 46.4 °F 41.5 °F 32.0 °F 57% 29.58 in 10.0 mi WSW 10.4 mph - N/A   Clear
2:15 AM 46.4 °F 41.1 °F 32.0 °F 57% 29.58 in 10.0 mi WSW 11.5 mph - N/A   Clear
2:35 AM 46.4 °F 41.5 °F 32.0 °F 57% 29.58 in 10.0 mi WSW 10.4 mph - N/A   Clear
2:55 AM 44.6 °F 39.7 °F 32.0 °F 61% 29.58 in 10.0 mi WSW 9.2 mph - N/A   Clear
3:15 AM 44.6 °F 39.2 °F 32.0 °F 61% 29.58 in 10.0 mi WSW 10.4 mph - N/A   Clear
3:35 AM 46.4 °F 42.4 °F 32.0 °F 57% 29.57 in 10.0 mi SW 8.1 mph - N/A   Clear
3:55 AM 44.6 °F 40.7 °F 32.0 °F 61% 29.57 in 10.0 mi SW 6.9 mph - N/A   Clear
4:15 AM 41.0 °F 39.0 °F 32.0 °F 70% 29.57 in 10.0 mi SW 3.5 mph - N/A   Clear
4:35 AM 42.8 °F 41.1 °F 32.0 °F 66% 29.56 in 10.0 mi SSW 3.5 mph - N/A   Clear
4:55 AM 39.2 °F - 32.0 °F 75% 29.57 in 10.0 mi Calm Calm - N/A   Clear
5:15 AM 44.6 °F 42.2 °F 32.0 °F 61% 29.56 in 10.0 mi SSW 4.6 mph - N/A   Clear
5:35 AM 39.2 °F 35.9 °F 32.0 °F 75% 29.56 in 10.0 mi SSW 4.6 mph - N/A   Clear
5:55 AM 42.8 °F 41.1 °F 32.0 °F 66% 29.56 in 10.0 mi SW 3.5 mph - N/A   Mostly Cloudy
6:15 AM 44.6 °F - 32.0 °F 61% 29.56 in 10.0 mi Calm Calm - N/A   Partly Cloudy
6:35 AM 42.8 °F - 32.0 °F 66% 29.56 in 10.0 mi Calm Calm - N/A   Scattered Clouds
6:55 AM 39.2 °F 33.6 °F 32.0 °F 75% 29.54 in 10.0 mi SSE 8.1 mph - N/A   Partly Cloudy
7:15 AM 37.4 °F 31.4 °F 32.0 °F 81% 29.55 in 10.0 mi South 8.1 mph - N/A   Clear
7:35 AM 39.2 °F 33.0 °F 32.0 °F 75% 29.55 in 10.0 mi South 9.2 mph - N/A   Clear
7:55 AM 39.2 °F 35.9 °F 32.0 °F 75% 29.54 in 10.0 mi ESE 4.6 mph - N/A   Mostly Cloudy
8:15 AM 42.8 °F 39.3 °F 32.0 °F 66% 29.55 in 10.0 mi SE 5.8 mph - N/A   Mostly Cloudy
8:35 AM 44.6 °F 43.1 °F 32.0 °F 61% 29.55 in 10.0 mi SE 3.5 mph - N/A   Mostly Cloudy
8:55 AM 48.2 °F - 33.8 °F 58% 29.54 in 10.0 mi SSE 4.6 mph - N/A   Partly Cloudy
9:15 AM 51.8 °F - 33.8 °F 50% 29.54 in 10.0 mi SSW 6.9 mph - N/A   Clear
9:35 AM 55.4 °F - 33.8 °F 44% 29.55 in 10.0 mi SSW 8.1 mph - N/A   Clear
9:55 AM 59.0 °F - 32.0 °F 36% 29.55 in 10.0 mi WSW 9.2 mph - N/A   Partly Cloudy
10:15 AM 59.0 °F - 32.0 °F 36% 29.57 in 10.0 mi WSW 12.7 mph - N/A   Partly Cloudy
10:35 AM 60.8 °F - 32.0 °F 34% 29.57 in 10.0 mi West 23.0 mph 29.9 mph N/A   Mostly Cloudy
10:55 AM 59.0 °F - 32.0 °F 36% 29.56 in 10.0 mi West 17.3 mph 26.5 mph N/A   Scattered Clouds
11:15 AM 62.6 °F - 35.6 °F 37% 29.56 in 10.0 mi West 19.6 mph 24.2 mph N/A   Partly Cloudy
11:35 AM 60.8 °F - 35.6 °F 39% 29.57 in 10.0 mi West 18.4 mph - N/A   Mostly Cloudy
11:55 AM 60.8 °F - 35.6 °F 39% 29.57 in 10.0 mi West 15.0 mph 21.9 mph N/A   Mostly Cloudy
12:15 PM 59.0 °F - 35.6 °F 42% 29.56 in 10.0 mi West 10.4 mph - N/A   Scattered Clouds
12:35 PM 62.6 °F - 37.4 °F 39% 29.56 in 10.0 mi SW 8.1 mph - N/A   Scattered Clouds
12:55 PM 62.6 °F - 37.4 °F 39% 29.54 in 10.0 mi SW 8.1 mph - N/A   Partly Cloudy
1:15 PM 64.4 °F - 37.4 °F 37% 29.54 in 10.0 mi WSW 9.2 mph - N/A   Scattered Clouds
1:35 PM 64.4 °F - 37.4 °F 37% 29.53 in 10.0 mi West 8.1 mph - N/A   Mostly Cloudy
1:55 PM 66.2 °F - 35.6 °F 32% 29.53 in 10.0 mi WSW 12.7 mph 17.3 mph N/A   Partly Cloudy
2:15 PM 66.2 °F - 35.6 °F 32% 29.53 in 10.0 mi West 13.8 mph - N/A   Scattered Clouds
2:35 PM 66.2 °F - 35.6 °F 32% 29.53 in 10.0 mi West 9.2 mph - N/A   Partly Cloudy
3:15 PM 66.2 °F - 35.6 °F 32% 29.55 in 10.0 mi West 10.4 mph - N/A   Partly Cloudy
3:35 PM 64.4 °F - 35.6 °F 34% 29.54 in 10.0 mi WSW 10.4 mph - N/A   Clear
3:55 PM 64.4 °F - 35.6 °F 34% 29.55 in 10.0 mi NNW 8.1 mph - N/A   Scattered Clouds
4:15 PM 62.6 °F - 35.6 °F 37% 29.55 in 10.0 mi WNW 3.5 mph - N/A   Mostly Cloudy
4:35 PM 62.6 °F - 35.6 °F 37% 29.56 in 10.0 mi WNW 5.8 mph - N/A   Mostly Cloudy
4:55 PM 60.8 °F - 37.4 °F 42% 29.56 in 10.0 mi WNW 4.6 mph - N/A   Overcast
5:15 PM 59.0 °F - 37.4 °F 45% 29.57 in 10.0 mi West 3.5 mph - N/A   Overcast
5:35 PM 59.0 °F - 37.4 °F 45% 29.57 in 10.0 mi Calm Calm - N/A   Partly Cloudy
5:55 PM 59.0 °F - 35.6 °F 42% 29.57 in 10.0 mi Calm Calm - N/A   Partly Cloudy
6:15 PM 57.2 °F - 37.4 °F 48% 29.57 in 10.0 mi Calm Calm - N/A   Mostly Cloudy
6:35 PM 53.6 °F - 39.2 °F 58% 29.57 in 10.0 mi South 3.5 mph - N/A   Mostly Cloudy
6:55 PM 53.6 °F - 39.2 °F 58% 29.58 in 10.0 mi SSW 4.6 mph - N/A   Mostly Cloudy
7:15 PM 51.8 °F - 39.2 °F 62% 29.58 in 10.0 mi SSW 3.5 mph - N/A   Mostly Cloudy
7:35 PM 48.2 °F - 41.0 °F 76% 29.60 in 10.0 mi SSE 3.5 mph - N/A   Mostly Cloudy
7:55 PM 50.0 °F - 41.0 °F 71% 29.61 in 10.0 mi SSW 4.6 mph - N/A   Overcast
8:15 PM 48.2 °F - 42.8 °F 82% 29.61 in 10.0 mi West 3.5 mph - N/A   Overcast
8:35 PM 51.8 °F - 41.0 °F 67% 29.65 in 7.0 mi WNW 9.2 mph - N/A Rain Light Rain
8:55 PM 50.0 °F - 44.6 °F 82% 29.66 in 5.0 mi WNW 10.4 mph - 0.01 in Rain Light Rain
9:15 PM 48.2 °F - 46.4 °F 93% 29.67 in 8.0 mi WNW 6.9 mph - N/A Rain Light Rain
9:35 PM 48.2 °F - 46.4 °F 93% 29.65 in 10.0 mi Calm Calm - N/A   Overcast
9:55 PM 48.2 °F - 44.6 °F 87% 29.68 in 10.0 mi West 11.5 mph - N/A   Overcast
10:35 PM 46.4 °F 40.7 °F 41.0 °F 81% 29.72 in 7.0 mi NW 12.7 mph - 0.01 in Rain Light Rain
10:55 PM 46.4 °F 44.3 °F 41.0 °F 81% 29.72 in 10.0 mi NNW 4.6 mph - 0.01 in Rain Light Rain
11:35 PM 46.4 °F 44.3 °F 41.0 °F 81% 29.73 in 10.0 mi WNW 4.6 mph - N/A   Overcast